Flag for USA

Past Weather in Harrisburg, Pennsylvania, USA — Yesterday and Last 2 Weeks

Now
72 °F

Clear.


Feels Like: 76 °F
Forecast: 88 / 68 °F
Wind: 6 mph from West

Location: Capital City Airport

Current Time: Jul 12, 2020 at 3:51:14 am

Latest Report: Jul 12, 2020 at 2:56 am


Visibility: 10 mi

Pressure: 29.74 "Hg

Humidity: 64%

Dew Point: 59 °F

Location of HarrisburgLocation

Past Weather in Harrisburg — Graph

°F

Harrisburg Temperature Yesterday

Maximum temperature yesterday: 89 °F (at 1:56 pm)
Minimum temperature yesterday: 71 °F (at 3:56 am)
Average temperature yesterday: 79 °F

High & Low Weather Summary for the Past Weeks

 TemperatureHumidityPressure
High97 °F (Jul 6, 3:56 pm)88% (Jul 9, 3:56 am)30.08 "Hg (Jul 9, 3:56 am)
Low65 °F (Jul 1, 4:56 am)26% (Jul 5, 6:56 pm)29.67 "Hg (Jul 11, 4:56 pm)
Average80 °F62%29.89 "Hg
* Reported Jun 27 1:01 am — Jul 12 1:56 am, Harrisburg. Weather by CustomWeather, © 2020

Note: Actual official high and low records may vary slightly from our data, if they occured in-between our weather recording intervals... More about our weather records

Harrisburg Weather History for the Previous 24 Hours

Scroll right to see more
 ConditionsComfort  
Time TempWeatherWind HumidityBarometerVisibility
1:56 am
Sun, Jul 12
74 °FClear.6 mph62%29.75 "Hg10 mi
12:56 am75 °FClear.10 mph60%29.74 "Hg10 mi
11:56 pm
Sat, Jul 11
74 °FClear.5 mph67%29.75 "Hg10 mi
10:56 pm76 °FClear.7 mph62%29.75 "Hg10 mi
9:56 pm76 °FClear.8 mph67%29.73 "Hg10 mi
8:56 pm78 °FClear.6 mph62%29.72 "Hg10 mi
7:56 pm80 °FScattered clouds.10 mph58%29.72 "Hg10 mi
6:56 pm82 °FLight rain. Overcast.15 mph56%29.70 "Hg10 mi
5:56 pm84 °FCloudy.13 mph51%29.67 "Hg10 mi
4:56 pm87 °FScattered clouds.15 mph48%29.67 "Hg10 mi
3:56 pm85 °FMostly cloudy.16 mph51%29.68 "Hg10 mi
2:56 pm86 °FMore clouds than sun.14 mph49%29.67 "Hg10 mi
1:56 pm89 °FScattered clouds.13 mph46%29.67 "Hg10 mi
12:56 pm86 °FMostly cloudy.12 mph53%29.70 "Hg10 mi
11:56 am86 °FBroken clouds.10 mph55%29.70 "Hg10 mi
10:56 am82 °FScattered clouds.5 mph63%29.71 "Hg10 mi
9:56 am80 °FPartly sunny.8 mph67%29.71 "Hg10 mi
8:56 am78 °FPassing clouds.6 mph71%29.71 "Hg10 mi
7:56 am75 °FPassing clouds.7 mph79%29.70 "Hg10 mi
6:56 am73 °FPartly sunny.3 mph81%29.70 "Hg10 mi
5:56 am71 °FSunny.3 mph84%29.70 "Hg10 mi
4:56 am71 °FClear.No wind84%29.69 "Hg10 mi
3:56 am71 °FClear.No wind87%29.70 "Hg10 mi
Weather by CustomWeather, © 2020

See weather overview